STARLINK-1719 (46331 NORAD) Tracking and Keplerian Element Data

This shows tracking and keplerian element data for the satellite.

Feedback or suggestion? Click here.




ElementValue
Catalog46331
NameSTARLINK-1719
Epoch Orbit178
Epoch Day268.91668981
Epoch Year2020
RAAN324.5181
Inclination53.0002
Eccentricity0.000152
Argument of Perigee70.9672
Mean Anonmoly125.8031
Mean Motion15.62784916
Decay Rate-0.00023227
L11 46331U 20062G 20268.91668981 -.00023227 00000-0 -24823-3 0 9993
L22 46331 53.0002 324.5181 0001520 70.9672 125.8031 15.62784916 1787

Live tracking and technical data element details for STARLINK-1719 (NORAD 46331). STARLINK-1719 can be tracked NOW for your location showing map with azimuth and elevation plus other details from your city location.

Track the satellite on the map from your city or location and see movement details for azimuth, elevation, latitude, longitude, range, height, and movement on the map or in text.







IsCatalogInMostPopularTable: catalog: 46331, numindb: 4
Update: records affected: 1



GetName: 46331 STARLINK-1719

Hit Count: updated at: Mon, 28 Sep 2020 20:41:48 GMT